Terug naar catalogus

THOR ABLESTAR DEB

ActiefLEO
NORAD 538·DEBRIS·🇺🇸 United States

Gelanceerd Jun 29, 1961 vanaf Cape Canaveral Space Force Station

Loading…

Volgende Passages (komende 24 uur)

TLE

VersSource: Space-Track

Epoch: Sep 13, 2026, 21:09 UTC

1 00538U 61015FX  26256.88145751  .00002972  00000-0  55584-3 0  9999
2 00538  67.8021  86.7675 0007366 177.9364 182.1794 14.66152635376603

Volg THOR ABLESTAR DEB in realtime met AllMySat

Download on the App Store